﻿_id,日時,平均風速(m/s),平均風向,最大瞬間風速(m/s),最大風速時風向,気温(℃),湿度(%),10分間移動積算雨量(mm),1時間移動積算雨量(mm),日雨量(mm),累計雨量(mm),日射(日積算)(MJ/m2),日照(日積算)(min),現地気圧(hPa),海面気圧(hPa)
1,2023-02-27T00:00:00,0.9,北北西,1.9,北北東,1.8,83.4,0,0,1,1,7.06,118,1021.2,1036
2,2023-02-27T00:01:00,0.8,北,1.9,北北東,1.7,83.4,0,0,0,1,0,0,1021.1,1035.9
3,2023-02-27T00:02:00,0.8,北,1.9,北北東,1.7,83.3,0,0,0,1,0,0,1021.1,1035.9
4,2023-02-27T00:03:00,0.8,北,1.9,北北東,1.7,83.4,0,0,0,1,0,0,1021.1,1035.9
5,2023-02-27T00:04:00,0.7,北,1.9,北北東,1.7,83.4,0,0,0,1,0,0,1021.1,1035.9
6,2023-02-27T00:05:00,0.7,北,1.9,北北東,1.7,83.1,0,0,0,1,0,0,1021.1,1035.9
7,2023-02-27T00:06:00,0.7,北,1.7,北,1.7,83.2,0,0,0,1,0,0,1021,1035.8
8,2023-02-27T00:07:00,0.6,北北西,1.7,北,1.6,83.1,0,0,0,1,0,0,1021,1035.8
9,2023-02-27T00:08:00,0.7,北北西,1.7,北,1.6,82.8,0,0,0,1,0,0,1021,1035.8
10,2023-02-27T00:09:00,0.7,北北西,1.7,北,1.6,82.9,0,0,0,1,0,0,1021,1035.8
11,2023-02-27T00:10:00,0.8,北北西,1.7,北,1.5,82.8,0,0,0,1,0,0,1021,1035.8
12,2023-02-27T00:11:00,0.8,北北西,1.6,北西,1.6,82.9,0,0,0,1,0,0,1021.1,1035.9
13,2023-02-27T00:12:00,0.7,北西,1.6,北西,1.7,83.4,0,0,0,1,0,0,1021.1,1035.9
14,2023-02-27T00:13:00,0.7,北西,1.6,北西,1.6,83.2,0,0,0,1,0,0,1021,1035.8
15,2023-02-27T00:14:00,0.7,北西,1.6,北西,1.6,83.1,0,0,0,1,0,0,1021,1035.8
16,2023-02-27T00:15:00,0.7,北西,1.6,北西,1.5,83,0,0,0,1,0,0,1021,1035.8
17,2023-02-27T00:16:00,0.6,北西,1.6,北西,1.5,83,0,0,0,1,0,0,1021.1,1035.9
18,2023-02-27T00:17:00,0.5,北西,1.6,北西,1.6,83.3,0,0,0,1,0,0,1021.1,1035.9
19,2023-02-27T00:18:00,0.5,北西,1.4,西北西,1.8,83.7,0,0,0,1,0,0,1021,1035.8
20,2023-02-27T00:19:00,0.4,北西,1.3,西北西,1.8,83.8,0,0,0,1,0,0,1021,1035.8
21,2023-02-27T00:20:00,0.3,北西,1.1,北西,1.7,83.5,0,0,0,1,0,0,1021,1035.8
22,2023-02-27T00:21:00,0.2,静穏,0.8,北北西,1.5,83.1,0,0,0,1,0,0,1021,1035.8
23,2023-02-27T00:22:00,0.2,静穏,0.8,北北西,1.7,83.1,0,0,0,1,0,0,1021,1035.8
24,2023-02-27T00:23:00,0.2,静穏,0.8,北北西,1.8,83.6,0,0,0,1,0,0,1021,1035.8
25,2023-02-27T00:24:00,0.2,静穏,0.5,西,1.6,83.2,0,0,0,1,0,0,1021,1035.8
26,2023-02-27T00:25:00,0.2,静穏,0.5,西,1.7,83.2,0,0,0,1,0,0,1020.9,1035.7
27,2023-02-27T00:26:00,0.2,静穏,0.5,西,1.8,83.4,0,0,0,1,0,0,1020.9,1035.7
28,2023-02-27T00:27:00,0.2,静穏,0.7,西北西,1.5,83.3,0,0,0,1,0,0,1020.8,1035.6
29,2023-02-27T00:28:00,0.2,静穏,0.7,西北西,1.6,83.1,0,0,0,1,0,0,1020.9,1035.7
30,2023-02-27T00:29:00,0.2,静穏,1.1,西北西,1.6,83,0,0,0,1,0,0,1020.9,1035.7
31,2023-02-27T00:30:00,0.3,北西,1.3,北西,1.6,83.3,0,0,0,1,0,0,1020.9,1035.7
32,2023-02-27T00:31:00,0.3,北西,1.3,北西,1.6,83,0,0,0,1,0,0,1020.9,1035.7
33,2023-02-27T00:32:00,0.3,北北西,1.3,北西,1.7,83.3,0,0,0,1,0,0,1020.9,1035.7
34,2023-02-27T00:33:00,0.3,北北西,1.3,北西,1.7,83.4,0,0,0,1,0,0,1021,1035.8
35,2023-02-27T00:34:00,0.4,北北西,1.3,北西,1.7,83.1,0,0,0,1,0,0,1021,1035.8
36,2023-02-27T00:35:00,0.4,北北西,1.3,北西,1.7,82.9,0,0,0,1,0,0,1021,1035.8
37,2023-02-27T00:36:00,0.5,北,1.4,東,1.8,82.9,0,0,0,1,0,0,1020.9,1035.7
38,2023-02-27T00:37:00,0.6,北北東,1.4,東,1.7,82.9,0,0,0,1,0,0,1020.9,1035.7
39,2023-02-27T00:38:00,0.6,北東,1.4,東,1.7,82.8,0,0,0,1,0,0,1020.9,1035.7
40,2023-02-27T00:39:00,0.6,北東,1.4,東,1.8,83.1,0,0,0,1,0,0,1020.9,1035.7
41,2023-02-27T00:40:00,0.6,北東,1.6,北東,1.8,83.1,0,0,0,1,0,0,1020.9,1035.7
42,2023-02-27T00:41:00,0.7,北東,1.8,北東,1.7,83.1,0,0,0,1,0,0,1020.9,1035.7
43,2023-02-27T00:42:00,0.8,北東,1.8,北東,1.9,83.1,0,0,0,1,0,0,1020.8,1035.6
44,2023-02-27T00:43:00,0.9,北東,2.3,北,1.8,83,0,0,0,1,0,0,1020.8,1035.6
45,2023-02-27T00:44:00,1,北東,2.4,北北東,2.1,83.2,0,0,0,1,0,0,1020.8,1035.6
46,2023-02-27T00:45:00,1.1,北東,2.6,北,2.2,83.6,0,0,0,1,0,0,1020.8,1035.6
47,2023-02-27T00:46:00,1.2,北東,2.6,北,2.1,82.8,0,0,0,1,0,0,1020.8,1035.6
48,2023-02-27T00:47:00,1.2,北東,2.6,北,2.1,82.3,0,0,0,1,0,0,1020.8,1035.6
49,2023-02-27T00:48:00,1.3,北北東,2.6,北,2,81.8,0,0,0,1,0,0,1020.8,1035.6
50,2023-02-27T00:49:00,1.4,北東,2.6,北,2,81.4,0,0,0,1,0,0,1020.8,1035.6
51,2023-02-27T00:50:00,1.4,北東,2.6,北,2.1,81.2,0,0,0,1,0,0,1020.8,1035.6
52,2023-02-27T00:51:00,1.5,北東,2.6,北,2.1,81.2,0,0,0,1,0,0,1020.8,1035.6
53,2023-02-27T00:52:00,1.6,北東,2.6,北,2.2,80.9,0,0,0,1,0,0,1020.9,1035.7
54,2023-02-27T00:53:00,1.6,北東,3,北東,2.2,80.7,0,0,0,1,0,0,1020.8,1035.6
55,2023-02-27T00:54:00,1.6,北東,3,北東,2.3,80.5,0,0,0,1,0,0,1020.7,1035.5
56,2023-02-27T00:55:00,1.6,北東,3,北東,2.3,80.3,0,0,0,1,0,0,1020.8,1035.6
57,2023-02-27T00:56:00,1.7,北東,3,北東,2.3,79.9,0,0,0,1,0,0,1020.8,1035.6
58,2023-02-27T00:57:00,1.8,北東,3,北東,2.3,79.4,0,0,0,1,0,0,1020.8,1035.6
59,2023-02-27T00:58:00,1.8,北東,3,北東,2.5,79.4,0,0,0,1,0,0,1020.7,1035.4
60,2023-02-27T00:59:00,1.8,北東,3,北東,2.4,79,0,0,0,1,0,0,1020.8,1035.6
61,2023-02-27T01:00:00,1.8,北東,3,北東,2.3,78.2,0,0,0,1,0,0,1020.7,1035.5
62,2023-02-27T01:01:00,1.8,北東,3,北東,2.3,77.9,0,0,0,1,0,0,1020.7,1035.5
63,2023-02-27T01:02:00,1.8,北東,3,北東,2.4,78.1,0,0,0,1,0,0,1020.8,1035.6
64,2023-02-27T01:03:00,1.7,北北東,2.8,北北東,2.4,77.7,0,0,0,1,0,0,1020.8,1035.6
65,2023-02-27T01:04:00,1.7,北北東,2.8,北北東,2.4,77.9,0,0,0,1,0,0,1020.8,1035.6
66,2023-02-27T01:05:00,1.6,北北東,2.8,北北東,2.5,77.8,0,0,0,1,0,0,1020.7,1035.4
67,2023-02-27T01:06:00,1.6,北北東,2.8,北北東,2.5,77.6,0,0,0,1,0,0,1020.7,1035.4
68,2023-02-27T01:07:00,1.5,北北東,2.8,北北東,2.4,77.4,0,0,0,1,0,0,1020.7,1035.5
69,2023-02-27T01:08:00,1.3,北北東,2.6,北北東,2.4,77.2,0,0,0,1,0,0,1020.8,1035.6
70,2023-02-27T01:09:00,1.2,北北東,2.6,北北東,2.4,77.2,0,0,0,1,0,0,1020.8,1035.6
71,2023-02-27T01:10:00,1.1,北,2.6,北北東,2.4,77,0,0,0,1,0,0,1020.8,1035.6
72,2023-02-27T01:11:00,1,北,2.6,北北東,2.4,77.1,0,0,0,1,0,0,1020.7,1035.5
73,2023-02-27T01:12:00,0.9,北,2.6,北北東,2.4,76.9,0,0,0,1,0,0,1020.7,1035.5
74,2023-02-27T01:13:00,0.8,北北東,2.4,北,2.5,77.1,0,0,0,1,0,0,1020.7,1035.4
75,2023-02-27T01:14:00,0.7,北北東,2.1,北北東,2.4,77,0,0,0,1,0,0,1020.8,1035.6
76,2023-02-27T01:15:00,0.7,北北東,2.1,北北東,2.5,76.9,0,0,0,1,0,0,1020.8,1035.6
77,2023-02-27T01:16:00,0.6,北北東,1.5,北北東,2.5,76.6,0,0,0,1,0,0,1020.8,1035.6
78,2023-02-27T01:17:00,0.5,北北東,1.5,北北東,2.6,76.5,0,0,0,1,0,0,1020.8,1035.5
79,2023-02-27T01:18:00,0.5,北北東,1.5,北北東,2.7,76.3,0,0,0,1,0,0,1020.8,1035.5
80,2023-02-27T01:19:00,0.5,北東,1.4,北,2.7,75.9,0,0,0,1,0,0,1020.8,1035.5
81,2023-02-27T01:20:00,0.5,北東,1.2,北北東,2.7,75.3,0,0,0,1,0,0,1020.9,1035.6
82,2023-02-27T01:21:00,0.5,北東,1.2,北北東,2.7,74.9,0,0,0,1,0,0,1020.9,1035.6
83,2023-02-27T01:22:00,0.5,北東,1.2,北北東,2.7,74.6,0,0,0,1,0,0,1020.8,1035.5
84,2023-02-27T01:23:00,0.5,北東,1.2,北北東,2.7,74.5,0,0,0,1,0,0,1020.8,1035.5
85,2023-02-27T01:24:00,0.5,北東,1.2,北北東,2.7,74.1,0,0,0,1,0,0,1020.9,1035.6
86,2023-02-27T01:25:00,0.6,北東,1.6,北北東,2.6,73.9,0,0,0,1,0,0,1020.9,1035.6
87,2023-02-27T01:26:00,0.6,北東,1.6,北北東,2.6,73.8,0,0,0,1,0,0,1020.9,1035.6
88,2023-02-27T01:27:00,0.6,北東,1.6,北北東,2.7,73.9,0,0,0,1,0,0,1020.8,1035.5
89,2023-02-27T01:28:00,0.6,北東,1.6,北北東,2.7,73.8,0,0,0,1,0,0,1020.8,1035.5
90,2023-02-27T01:29:00,0.7,北東,2,東北東,2.8,73.9,0,0,0,1,0,0,1020.8,1035.5
91,2023-02-27T01:30:00,0.8,北東,2,東北東,2.8,73.8,0,0,0,1,0,0,1020.8,1035.5
92,2023-02-27T01:31:00,0.9,北東,2,東北東,2.8,73.3,0,0,0,1,0,0,1020.8,1035.5
93,2023-02-27T01:32:00,1,北東,2,東北東,2.6,72.8,0,0,0,1,0,0,1020.8,1035.5
94,2023-02-27T01:33:00,1.1,北東,2,東北東,2.5,72.3,0,0,0,1,0,0,1020.8,1035.6
95,2023-02-27T01:34:00,1.1,北東,2,東北東,2.5,72.3,0,0,0,1,0,0,1020.7,1035.4
96,2023-02-27T01:35:00,1.1,北東,2,東北東,2.4,72.3,0,0,0,1,0,0,1020.8,1035.6
97,2023-02-27T01:36:00,1.1,北東,2,東北東,2.5,72.5,0,0,0,1,0,0,1020.7,1035.4
98,2023-02-27T01:37:00,1.1,北東,2,東北東,2.4,72.7,0,0,0,1,0,0,1020.8,1035.6
99,2023-02-27T01:38:00,1.2,北東,2,東北東,2.5,73,0,0,0,1,0,0,1020.8,1035.6
100,2023-02-27T01:39:00,1.2,北北東,2.1,北,2.5,73.3,0,0,0,1,0,0,1020.7,1035.4
101,2023-02-27T01:40:00,1.1,北北東,2.1,北,2.4,73.3,0,0,0,1,0,0,1020.7,1035.5
102,2023-02-27T01:41:00,1.1,北北東,2.1,北,2.4,73.5,0,0,0,1,0,0,1020.7,1035.5
103,2023-02-27T01:42:00,1.1,北北東,2.4,北,2.3,73.3,0,0,0,1,0,0,1020.8,1035.6
104,2023-02-27T01:43:00,1,北北東,2.4,北,2.2,73.4,0,0,0,1,0,0,1020.8,1035.6
105,2023-02-27T01:44:00,0.9,北,2.4,北,2.3,73.6,0,0,0,1,0,0,1020.8,1035.6
106,2023-02-27T01:45:00,0.9,北,2.4,北,2.3,73.8,0,0,0,1,0,0,1020.8,1035.6
107,2023-02-27T01:46:00,0.8,北,2.4,北,2.3,73.7,0,0,0,1,0,0,1020.8,1035.6
108,2023-02-27T01:47:00,0.7,北,2.4,北,2.3,73.5,0,0,0,1,0,0,1020.7,1035.5
109,2023-02-27T01:48:00,0.7,北,2.4,北,2.5,73.7,0,0,0,1,0,0,1020.8,1035.6
110,2023-02-27T01:49:00,0.6,北,2.4,北,2.5,73.7,0,0,0,1,0,0,1020.8,1035.6
111,2023-02-27T01:50:00,0.6,北,2.4,北,2.4,73.2,0,0,0,1,0,0,1020.7,1035.5
112,2023-02-27T01:51:00,0.7,北北東,2.4,北,2.6,73.2,0,0,0,1,0,0,1020.8,1035.5
113,2023-02-27T01:52:00,0.7,北北東,2.1,北東,2.5,72.7,0,0,0,1,0,0,1020.7,1035.4
114,2023-02-27T01:53:00,0.8,北北東,2.1,北東,2.4,72.4,0,0,0,1,0,0,1020.8,1035.6
115,2023-02-27T01:54:00,0.8,北北東,2.1,北東,2.5,72.4,0,0,0,1,0,0,1020.8,1035.6
116,2023-02-27T01:55:00,0.9,北東,2.1,北東,2.5,72.6,0,0,0,1,0,0,1020.8,1035.6
117,2023-02-27T01:56:00,1,北東,2.1,北東,2.6,72.3,0,0,0,1,0,0,1020.8,1035.5
118,2023-02-27T01:57:00,1.1,北東,2.1,北東,2.5,71.9,0,0,0,1,0,0,1020.7,1035.4
119,2023-02-27T01:58:00,1.1,北東,2.1,北東,2.5,71.6,0,0,0,1,0,0,1020.7,1035.4
120,2023-02-27T01:59:00,1.1,北東,2.1,北東,2.6,71.6,0,0,0,1,0,0,1020.7,1035.4
121,2023-02-27T02:00:00,1.2,北東,2.1,北東,2.6,71.5,0,0,0,1,0,0,1020.7,1035.4
122,2023-02-27T02:01:00,1.2,北東,2,北東,2.6,71.1,0,0,0,1,0,0,1020.7,1035.4
123,2023-02-27T02:02:00,1.2,北東,2.1,北,2.7,70.9,0,0,0,1,0,0,1020.7,1035.4
124,2023-02-27T02:03:00,1.2,北東,2.4,北北東,2.8,70.8,0,0,0,1,0,0,1020.7,1035.4
125,2023-02-27T02:04:00,1.2,北東,2.4,北北東,2.9,70.6,0,0,0,1,0,0,1020.8,1035.5
126,2023-02-27T02:05:00,1.2,北東,2.4,北北東,2.8,69.9,0,0,0,1,0,0,1020.7,1035.4
127,2023-02-27T02:06:00,1.3,北東,2.4,北北東,2.8,69.9,0,0,0,1,0,0,1020.7,1035.4
128,2023-02-27T02:07:00,1.3,北東,2.4,北北東,2.7,69.3,0,0,0,1,0,0,1020.7,1035.4
129,2023-02-27T02:08:00,1.4,北東,2.4,北北東,2.7,69.3,0,0,0,1,0,0,1020.7,1035.4
130,2023-02-27T02:09:00,1.5,北東,2.8,北東,2.7,69.7,0,0,0,1,0,0,1020.8,1035.5
131,2023-02-27T02:10:00,1.6,北東,3,北東,2.8,69.9,0,0,0,1,0,0,1020.8,1035.5
132,2023-02-27T02:11:00,1.7,北東,3,北東,2.9,69.9,0,0,0,1,0,0,1020.7,1035.4
133,2023-02-27T02:12:00,1.7,北東,3,北東,2.9,69.9,0,0,0,1,0,0,1020.7,1035.4
134,2023-02-27T02:13:00,1.7,北東,3,北東,2.8,69.4,0,0,0,1,0,0,1020.7,1035.4
135,2023-02-27T02:14:00,1.8,北東,3,北東,2.8,68.9,0,0,0,1,0,0,1020.6,1035.3
136,2023-02-27T02:15:00,1.9,北東,3,北東,2.9,68.8,0,0,0,1,0,0,1020.7,1035.4
137,2023-02-27T02:16:00,1.9,北東,3,北東,2.9,68.9,0,0,0,1,0,0,1020.7,1035.4
138,2023-02-27T02:17:00,1.9,北北東,3,北東,2.9,68.8,0,0,0,1,0,0,1020.7,1035.4
139,2023-02-27T02:18:00,1.9,北北東,3,北東,2.8,68.8,0,0,0,1,0,0,1020.6,1035.3
140,2023-02-27T02:19:00,1.8,北北東,3,北東,2.8,68.8,0,0,0,1,0,0,1020.6,1035.3
141,2023-02-27T02:20:00,1.6,北北東,2.9,北北東,2.7,68.9,0,0,0,1,0,0,1020.6,1035.3
142,2023-02-27T02:21:00,1.5,北北東,2.9,北北東,2.7,69.2,0,0,0,1,0,0,1020.6,1035.3
143,2023-02-27T02:22:00,1.4,北北東,2.9,北北東,2.7,69.4,0,0,0,1,0,0,1020.7,1035.4
144,2023-02-27T02:23:00,1.4,北北東,2.9,北北東,2.6,69.5,0,0,0,1,0,0,1020.6,1035.3
145,2023-02-27T02:24:00,1.4,北北東,2.8,北,2.8,69.9,0,0,0,1,0,0,1020.6,1035.3
146,2023-02-27T02:25:00,1.3,北北東,2.8,北,2.7,70.1,0,0,0,1,0,0,1020.6,1035.3
147,2023-02-27T02:26:00,1.3,北北東,2.8,北,2.7,70.2,0,0,0,1,0,0,1020.6,1035.3
148,2023-02-27T02:27:00,1.2,北,2.8,北,2.7,70.2,0,0,0,1,0,0,1020.7,1035.4
149,2023-02-27T02:28:00,1.2,北,2.8,北,2.6,70.2,0,0,0,1,0,0,1020.6,1035.3
150,2023-02-27T02:29:00,1.2,北,2.8,北,2.5,70.2,0,0,0,1,0,0,1020.7,1035.4
151,2023-02-27T02:30:00,1.1,北,2.8,北,2.4,70.2,0,0,0,1,0,0,1020.6,1035.4
152,2023-02-27T02:31:00,1.1,北,2.8,北,2.5,70.6,0,0,0,1,0,0,1020.6,1035.3
153,2023-02-27T02:32:00,1.1,北,2.8,北,2.6,71.2,0,0,0,1,0,0,1020.7,1035.4
154,2023-02-27T02:33:00,1,北,2.5,北北東,2.6,71.3,0,0,0,1,0,0,1020.7,1035.4
155,2023-02-27T02:34:00,1,北,2.4,北東,2.5,70.9,0,0,0,1,0,0,1020.7,1035.4
156,2023-02-27T02:35:00,0.9,北,2.3,北北東,2.6,70.9,0,0,0,1,0,0,1020.7,1035.4
157,2023-02-27T02:36:00,0.9,北,2.2,北東,2.6,71,0,0,0,1,0,0,1020.7,1035.4
158,2023-02-27T02:37:00,1,北,2.2,北東,2.5,70.8,0,0,0,1,0,0,1020.7,1035.4
159,2023-02-27T02:38:00,1,北,2.2,北東,2.4,70.6,0,0,0,1,0,0,1020.7,1035.5
160,2023-02-27T02:39:00,1,北,2.2,北東,2.5,70.6,0,0,0,1,0,0,1020.7,1035.4
161,2023-02-27T02:40:00,1,北,2.2,北東,2.6,70.9,0,0,0,1,0,0,1020.7,1035.4
162,2023-02-27T02:41:00,1.1,北,2.2,北東,2.6,70.9,0,0,0,1,0,0,1020.6,1035.3
163,2023-02-27T02:42:00,1.1,北,2.2,北東,2.5,70.4,0,0,0,1,0,0,1020.6,1035.3
164,2023-02-27T02:43:00,1.1,北,2.2,北東,2.4,70,0,0,0,1,0,0,1020.6,1035.4
165,2023-02-27T02:44:00,1.1,北,2.2,北東,2.4,70,0,0,0,1,0,0,1020.7,1035.5
166,2023-02-27T02:45:00,1.1,北,2.2,北東,2.4,70,0,0,0,1,0,0,1020.7,1035.5
167,2023-02-27T02:46:00,1.2,北,2.1,北北東,2.5,70.5,0,0,0,1,0,0,1020.6,1035.3
168,2023-02-27T02:47:00,1.2,北,2.1,北北東,2.4,70.3,0,0,0,1,0,0,1020.7,1035.5
169,2023-02-27T02:48:00,1.2,北,2.1,北北東,2.4,70.2,0,0,0,1,0,0,1020.6,1035.4
170,2023-02-27T02:49:00,1.2,北,2.1,北北東,2.4,70.5,0,0,0,1,0,0,1020.6,1035.4
171,2023-02-27T02:50:00,1.2,北,2.1,北北東,2.3,70.5,0,0,0,1,0,0,1020.6,1035.4
172,2023-02-27T02:51:00,1.1,北,2.1,北北東,2.4,70.7,0,0,0,1,0,0,1020.6,1035.4
173,2023-02-27T02:52:00,1,北,2.1,北北東,2.3,70.9,0,0,0,1,0,0,1020.6,1035.4
174,2023-02-27T02:53:00,1,北,2.1,北北東,2.3,70.8,0,0,0,1,0,0,1020.5,1035.3
175,2023-02-27T02:54:00,1,北,2.1,北北東,2.4,71.1,0,0,0,1,0,0,1020.5,1035.3
176,2023-02-27T02:55:00,0.9,北,2.1,北北東,2.4,71.4,0,0,0,1,0,0,1020.6,1035.4
177,2023-02-27T02:56:00,0.8,北,2.1,北北東,2.3,71.2,0,0,0,1,0,0,1020.6,1035.4
178,2023-02-27T02:57:00,0.8,北北西,1.7,北北東,2.3,71.2,0,0,0,1,0,0,1020.6,1035.4
179,2023-02-27T02:58:00,0.8,北北西,1.7,北北東,2.4,71.1,0,0,0,1,0,0,1020.6,1035.4
180,2023-02-27T02:59:00,0.8,北北西,1.7,北北東,2.3,71.1,0,0,0,1,0,0,1020.5,1035.3
181,2023-02-27T03:00:00,0.8,北北西,2.4,北北東,2.4,71.2,0,0,0,1,0,0,1020.6,1035.4
182,2023-02-27T03:01:00,0.9,北北西,2.4,北北東,2.4,71.6,0,0,0,1,0,0,1020.7,1035.5
183,2023-02-27T03:02:00,0.9,北北西,2.4,北北東,2.4,71.2,0,0,0,1,0,0,1020.7,1035.5
184,2023-02-27T03:03:00,0.9,北北西,2.4,北北東,2.3,71.1,0,0,0,1,0,0,1020.7,1035.5
185,2023-02-27T03:04:00,,"",,"",,,,,,,,,,
186,2023-02-27T03:05:00,0.9,北北西,2.4,北北東,2.3,70.9,0,0,0,1,0,0,1020.6,1035.4
187,2023-02-27T03:06:00,0.9,北北西,2.4,北北東,2.3,71.1,0,0,0,1,0,0,1020.6,1035.4
188,2023-02-27T03:07:00,0.9,北北西,2.4,北北東,2.3,71.2,0,0,0,1,0,0,1020.7,1035.5
189,2023-02-27T03:08:00,0.9,北北西,2.4,北北東,2.2,71.2,0,0,0,1,0,0,1020.7,1035.5
190,2023-02-27T03:09:00,1,北北西,2.4,北北東,2.3,71.3,0,0,0,1,0,0,1020.7,1035.5
191,2023-02-27T03:10:00,1,北北西,2.2,北北東,2.4,71.8,0,0,0,1,0,0,1020.6,1035.4
192,2023-02-27T03:11:00,1,北北西,2.2,北北東,2.3,71.8,0,0,0,1,0,0,1020.7,1035.5
193,2023-02-27T03:12:00,0.9,北北西,2.2,北北東,2.4,71.7,0,0,0,1,0,0,1020.7,1035.5
194,2023-02-27T03:13:00,0.9,北北西,2.2,北北東,2.4,72.1,0,0,0,1,0,0,1020.7,1035.5
195,2023-02-27T03:14:00,0.9,北北西,2.2,北北東,2.4,71.9,0,0,0,1,0,0,1020.7,1035.5
196,2023-02-27T03:15:00,0.9,北,2.2,北北東,2.3,71.6,0,0,0,1,0,0,1020.6,1035.4
197,2023-02-27T03:16:00,0.9,北,2.2,北北東,2.2,71.5,0,0,0,1,0,0,1020.7,1035.5
198,2023-02-27T03:17:00,0.9,北,2.2,北北東,2.2,71.8,0,0,0,1,0,0,1020.7,1035.5
199,2023-02-27T03:18:00,1,北,2.2,北北東,2.3,72.2,0,0,0,1,0,0,1020.7,1035.5
200,2023-02-27T03:19:00,1.1,北,2.3,北,2.3,72.3,0,0,0,1,0,0,1020.7,1035.5
201,2023-02-27T03:20:00,1,北,2.3,北,2.3,72.4,0,0,0,1,0,0,1020.7,1035.5
202,2023-02-27T03:21:00,1,北,2.3,北,2.3,72.4,0,0,0,1,0,0,1020.7,1035.5
203,2023-02-27T03:22:00,1.1,北,2.3,北,2.2,72.3,0,0,0,1,0,0,1020.7,1035.5
204,2023-02-27T03:23:00,1.1,北,2.3,北,2.2,72.3,0,0,0,1,0,0,1020.7,1035.5
205,2023-02-27T03:24:00,1.1,北,2.3,北,2.2,72.5,0,0,0,1,0,0,1020.6,1035.4
206,2023-02-27T03:25:00,1.2,北,2.3,北,2.2,72.6,0,0,0,1,0,0,1020.7,1035.5
207,2023-02-27T03:26:00,1.3,北,2.4,北北東,2.4,72.9,0,0,0,1,0,0,1020.6,1035.4
208,2023-02-27T03:27:00,1.3,北,2.4,北北東,2.4,72.8,0,0,0,1,0,0,1020.6,1035.4
209,2023-02-27T03:28:00,1.3,北,2.4,北北東,2.3,72.5,0,0,0,1,0,0,1020.6,1035.4
210,2023-02-27T03:29:00,1.3,北,2.4,北北東,2.3,72.1,0,0,0,1,0,0,1020.6,1035.4
211,2023-02-27T03:30:00,1.3,北,2.5,北,2.2,72,0,0,0,1,0,0,1020.7,1035.5
212,2023-02-27T03:31:00,1.4,北,2.5,北,2.4,72.2,0,0,0,1,0,0,1020.7,1035.5
213,2023-02-27T03:32:00,1.4,北北東,2.5,北,2.4,72.7,0,0,0,1,0,0,1020.7,1035.5
214,2023-02-27T03:33:00,1.5,北北東,2.5,北,2.1,72,0,0,0,1,0,0,1020.6,1035.4
215,2023-02-27T03:34:00,1.5,北北東,2.8,北北東,2.1,71.8,0,0,0,1,0,0,1020.6,1035.4
216,2023-02-27T03:35:00,1.6,北北東,2.8,北北東,2.1,72.3,0,0,0,1,0,0,1020.7,1035.5
217,2023-02-27T03:36:00,1.7,北北東,2.8,北北東,2.2,72.8,0,0,0,1,0,0,1020.7,1035.5
218,2023-02-27T03:37:00,1.6,北北東,2.8,北北東,2.2,73,0,0,0,1,0,0,1020.7,1035.5
219,2023-02-27T03:38:00,1.7,北東,2.8,北北東,2.2,73.1,0,0,0,1,0,0,1020.7,1035.5
220,2023-02-27T03:39:00,1.7,北東,2.8,北北東,2.3,73.4,0,0,0,1,0,0,1020.6,1035.4
221,2023-02-27T03:40:00,1.7,北東,2.8,北北東,2.2,73.1,0,0,0,1,0,0,1020.6,1035.4
222,2023-02-27T03:41:00,1.7,北東,2.8,北北東,2.2,72.8,0,0,0,1,0,0,1020.7,1035.5
223,2023-02-27T03:42:00,1.8,北北東,2.8,北北東,2.3,72.7,0,0,0,1,0,0,1020.7,1035.5
224,2023-02-27T03:43:00,1.8,北北東,2.8,北北東,2.3,72.8,0,0,0,1,0,0,1020.7,1035.5
225,2023-02-27T03:44:00,1.8,北北東,2.6,北,2.4,72.5,0,0,0,1,0,0,1020.7,1035.5
226,2023-02-27T03:45:00,1.8,北北東,2.6,北,2.4,72.4,0,0,0,1,0,0,1020.7,1035.5
227,2023-02-27T03:46:00,1.7,北北東,2.6,北,2.3,72,0,0,0,1,0,0,1020.6,1035.4
228,2023-02-27T03:47:00,1.7,北北東,2.6,北,2.5,72.4,0,0,0,1,0,0,1020.7,1035.4
229,2023-02-27T03:48:00,1.7,北北東,2.6,北,2.3,72,0,0,0,1,0,0,1020.7,1035.5
230,2023-02-27T03:49:00,1.6,北北東,2.6,北,2.2,71.7,0,0,0,1,0,0,1020.7,1035.5
231,2023-02-27T03:50:00,1.4,北北東,2.6,北,2.3,71.8,0,0,0,1,0,0,1020.6,1035.4
232,2023-02-27T03:51:00,1.2,北北東,2.5,北北東,2.3,72,0,0,0,1,0,0,1020.6,1035.4
233,2023-02-27T03:52:00,1.1,北,2.2,北北東,2.3,72,0,0,0,1,0,0,1020.7,1035.5
234,2023-02-27T03:53:00,1,北,2.2,北北東,2.3,72.2,0,0,0,1,0,0,1020.6,1035.4
235,2023-02-27T03:54:00,0.9,北,2.2,北北東,2.3,72.3,0,0,0,0,0,0,1020.7,1035.5
236,2023-02-27T03:55:00,0.8,北,1.9,北北東,2.2,72.3,0,0,0,0,0,0,1020.7,1035.5
237,2023-02-27T03:56:00,0.8,北,1.9,北北東,2.2,72.1,0,0,0,0,0,0,1020.7,1035.5
238,2023-02-27T03:57:00,0.7,北,1.7,北,2.1,72.2,0,0,0,0,0,0,1020.7,1035.5
239,2023-02-27T03:58:00,0.7,北,1.9,北北東,2.1,72.3,0,0,0,0,0,0,1020.7,1035.5
240,2023-02-27T03:59:00,0.7,北北東,1.9,北北東,2.1,72.4,0,0,0,0,0,0,1020.8,1035.6
241,2023-02-27T04:00:00,0.8,北北東,1.9,北北東,2.1,72.5,0,0,0,0,0,0,1020.8,1035.6
242,2023-02-27T04:01:00,0.8,北北東,1.9,北北東,2.1,72.6,0,0,0,0,0,0,1020.8,1035.6
243,2023-02-27T04:02:00,0.8,北北東,1.9,北北東,2.1,72.6,0,0,0,0,0,0,1020.8,1035.6
244,2023-02-27T04:03:00,0.8,北北東,1.9,北北東,2.2,72.7,0,0,0,0,0,0,1020.7,1035.5
245,2023-02-27T04:04:00,0.8,北北東,1.9,北北東,2.2,72.7,0,0,0,0,0,0,1020.7,1035.5
246,2023-02-27T04:05:00,0.8,北北東,1.9,北北東,2.2,72.5,0,0,0,0,0,0,1020.7,1035.5
247,2023-02-27T04:06:00,0.9,北北東,1.9,北北東,2.2,72.3,0,0,0,0,0,0,1020.7,1035.5
248,2023-02-27T04:07:00,0.9,北北東,1.9,北北東,2.2,72.5,0,0,0,0,0,0,1020.7,1035.5
249,2023-02-27T04:08:00,0.9,北北東,2,北北東,2.2,72,0,0,0,0,0,0,1020.7,1035.5
250,2023-02-27T04:09:00,0.9,北北東,2.2,北,2.2,72.2,0,0,0,0,0,0,1020.7,1035.5
251,2023-02-27T04:10:00,1,北北東,2.2,北,2.1,71.8,0,0,0,0,0,0,1020.8,1035.6
252,2023-02-27T04:11:00,1,北北東,2.2,北,2.1,71.7,0,0,0,0,0,0,1020.8,1035.6
253,2023-02-27T04:12:00,1,北北東,2.2,北,2,71.8,0,0,0,0,0,0,1020.8,1035.6
254,2023-02-27T04:13:00,1,北北東,2.2,北,2,71.9,0,0,0,0,0,0,1020.8,1035.6
255,2023-02-27T04:14:00,1.1,北北東,2.7,北北東,2.1,72.4,0,0,0,0,0,0,1020.8,1035.6
256,2023-02-27T04:15:00,1.2,北北東,2.7,北北東,2.1,72.7,0,0,0,0,0,0,1020.7,1035.5
257,2023-02-27T04:16:00,1.2,北北東,2.7,北北東,2,72.4,0,0,0,0,0,0,1020.8,1035.6
258,2023-02-27T04:17:00,1.3,北北東,2.8,北東,2,72.3,0,0,0,0,0,0,1020.8,1035.6
259,2023-02-27T04:18:00,1.4,北北東,2.8,北東,2.1,72.7,0,0,0,0,0,0,1020.8,1035.6
260,2023-02-27T04:19:00,1.4,北北東,2.9,北北東,2.1,72.8,0,0,0,0,0,0,1020.8,1035.6
261,2023-02-27T04:20:00,1.5,北北東,2.9,北北東,2,72.7,0,0,0,0,0,0,1020.7,1035.5
262,2023-02-27T04:21:00,1.6,北北東,2.9,北北東,2,72.6,0,0,0,0,0,0,1020.8,1035.6
263,2023-02-27T04:22:00,1.8,北東,2.9,北北東,2,72.7,0,0,0,0,0,0,1020.8,1035.6
264,2023-02-27T04:23:00,1.9,北東,2.9,北北東,2.1,72.9,0,0,0,0,0,0,1020.9,1035.7
265,2023-02-27T04:24:00,1.8,北北東,2.9,北北東,1.9,72.8,0,0,0,0,0,0,1020.9,1035.7
266,2023-02-27T04:25:00,1.8,北北東,2.9,北北東,1.8,72.5,0,0,0,0,0,0,1020.9,1035.7
267,2023-02-27T04:26:00,1.7,北北東,2.9,北北東,1.8,72.8,0,0,0,0,0,0,1020.9,1035.7
268,2023-02-27T04:27:00,1.6,北北東,2.9,北北東,1.8,73.1,0,0,0,0,0,0,1020.9,1035.7
269,2023-02-27T04:28:00,1.6,北北東,2.9,北北東,1.9,73.7,0,0,0,0,0,0,1020.9,1035.7
270,2023-02-27T04:29:00,1.6,北北東,2.9,北北東,1.9,73.9,0,0,0,0,0,0,1020.9,1035.7
271,2023-02-27T04:30:00,1.6,北北東,2.9,北北東,1.7,73.9,0,0,0,0,0,0,1021,1035.8
272,2023-02-27T04:31:00,1.6,北北東,3.1,北東,1.7,73.8,0,0,0,0,0,0,1020.9,1035.7
273,2023-02-27T04:32:00,1.5,北北東,3.1,北東,1.7,74.1,0,0,0,0,0,0,1020.9,1035.7
274,2023-02-27T04:33:00,1.6,北北東,3.9,北東,1.8,74.6,0,0,0,0,0,0,1020.9,1035.7
275,2023-02-27T04:34:00,1.7,北北東,3.9,北東,1.8,75,0,0,0,0,0,0,1021,1035.8
276,2023-02-27T04:35:00,1.9,北北東,3.9,北東,1.9,74.8,0,0,0,0,0,0,1021,1035.8
277,2023-02-27T04:36:00,2,北北東,3.9,北東,1.9,74.9,0,0,0,0,0,0,1021,1035.8
278,2023-02-27T04:37:00,2.1,北北東,3.9,北東,2,74.6,0,0,0,0,0,0,1021,1035.8
279,2023-02-27T04:38:00,2.1,北東,3.9,北東,2,74.6,0,0,0,0,0,0,1020.9,1035.7
280,2023-02-27T04:39:00,2.2,北東,3.9,北東,2,74.3,0,0,0,0,0,0,1021,1035.8
281,2023-02-27T04:40:00,2.2,北東,3.9,北東,2.1,74.1,0,0,0,0,0,0,1021,1035.8
282,2023-02-27T04:41:00,2.3,北東,4.6,北東,2,74,0,0,0,0,0,0,1021,1035.8
283,2023-02-27T04:42:00,2.4,北東,4.6,北東,1.9,73.7,0,0,0,0,0,0,1021,1035.8
284,2023-02-27T04:43:00,2.4,北東,4.6,北東,1.9,73.4,0,0,0,0,0,0,1020.9,1035.7
285,2023-02-27T04:44:00,2.2,北東,4.6,北東,1.9,73.4,0,0,0,0,0,0,1020.9,1035.7
286,2023-02-27T04:45:00,2.2,北東,4.6,北東,1.9,73.4,0,0,0,0,0,0,1020.9,1035.7
287,2023-02-27T04:46:00,2.2,北東,4.7,北東,1.8,73.1,0,0,0,0,0,0,1021,1035.8
288,2023-02-27T04:47:00,2.3,北東,4.7,北東,1.9,73.2,0,0,0,0,0,0,1021,1035.8
289,2023-02-27T04:48:00,2.4,北東,4.8,北東,2,73.6,0,0,0,0,0,0,1021,1035.8
290,2023-02-27T04:49:00,2.6,北東,5.1,北東,2.1,73.5,0,0,0,0,0,0,1021,1035.8
291,2023-02-27T04:50:00,2.7,北東,5.5,北東,1.9,73.2,0,0,0,0,0,0,1020.9,1035.7
292,2023-02-27T04:51:00,2.8,北東,5.5,北東,1.8,72.8,0,0,0,0,0,0,1020.9,1035.7
293,2023-02-27T04:52:00,2.9,北東,5.5,北東,1.9,73,0,0,0,0,0,0,1020.9,1035.7
294,2023-02-27T04:53:00,3,北東,5.5,北東,2,73.5,0,0,0,0,0,0,1021,1035.8
295,2023-02-27T04:54:00,3.2,北東,5.5,北東,2,73.2,0,0,0,0,0,0,1020.9,1035.7
296,2023-02-27T04:55:00,3.3,北東,5.5,北東,2,73.2,0,0,0,0,0,0,1020.9,1035.7
297,2023-02-27T04:56:00,3.2,北東,5.5,北東,2.1,73.1,0,0,0,0,0,0,1020.9,1035.7
298,2023-02-27T04:57:00,3.2,北東,5.5,北東,2.1,72.8,0,0,0,0,0,0,1021,1035.8
299,2023-02-27T04:58:00,3.1,北東,5.5,北東,2.2,72.8,0,0,0,0,0,0,1021,1035.8
300,2023-02-27T04:59:00,3.1,北東,5.5,北東,2.2,72.5,0,0,0,0,0,0,1021,1035.8
301,2023-02-27T05:00:00,2.8,北東,4.7,北東,2,72.3,0,0,0,0,0,0,1020.9,1035.7
302,2023-02-27T05:01:00,2.6,北東,4.7,北東,1.8,71.7,0,0,0,0,0,0,1020.9,1035.7
303,2023-02-27T05:02:00,2.6,北東,4.7,北東,1.7,71.9,0,0,0,0,0,0,1020.9,1035.7
304,2023-02-27T05:03:00,2.5,北東,4.7,北東,1.8,72.5,0,0,0,0,0,0,1021,1035.8
305,2023-02-27T05:04:00,2.5,北東,4.2,北東,1.8,72.9,0,0,0,0,0,0,1021,1035.8
306,2023-02-27T05:05:00,2.4,北東,4.2,北東,2,73.2,0,0,0,0,0,0,1021,1035.8
307,2023-02-27T05:06:00,2.4,北東,4.3,北東,2.1,73.5,0,0,0,0,0,0,1021,1035.8
308,2023-02-27T05:07:00,2.6,北東,5.4,北東,2.1,73.1,0,0,0,0,0,0,1020.9,1035.7
309,2023-02-27T05:08:00,2.6,北東,5.4,北東,2.1,72.6,0,0,0,0,0,0,1021,1035.8
310,2023-02-27T05:09:00,2.7,北東,5.4,北東,2.2,72.7,0,0,0,0,0,0,1020.9,1035.7
311,2023-02-27T05:10:00,2.9,北東,5.4,北東,2.2,72.1,0,0,0,0,0,0,1021,1035.8
312,2023-02-27T05:11:00,2.9,北東,5.4,北東,2,71.6,0,0,0,0,0,0,1021,1035.8
313,2023-02-27T05:12:00,3,北東,5.4,北東,2,71.2,0,0,0,0,0,0,1020.9,1035.7
314,2023-02-27T05:13:00,3,北東,5.4,北東,2,71.3,0,0,0,0,0,0,1021,1035.8
315,2023-02-27T05:14:00,3,北東,5.4,北東,2.1,71.9,0,0,0,0,0,0,1021,1035.8
316,2023-02-27T05:15:00,3.1,北東,5.4,北東,2,72,0,0,0,0,0,0,1021.1,1035.9
317,2023-02-27T05:16:00,3.1,北東,5.4,北東,2.1,71.8,0,0,0,0,0,0,1021,1035.8
318,2023-02-27T05:17:00,2.9,北東,5.3,北北東,1.9,71.7,0,0,0,0,0,0,1021,1035.8
319,2023-02-27T05:18:00,2.9,北東,5.3,北北東,1.9,71.8,0,0,0,0,0,0,1021,1035.8
320,2023-02-27T05:19:00,2.8,北東,4.6,北東,1.9,71.9,0,0,0,0,0,0,1021,1035.8
321,2023-02-27T05:20:00,2.8,北北東,4.6,北東,1.7,71.8,0,0,0,0,0,0,1021,1035.8
322,2023-02-27T05:21:00,2.8,北北東,4.6,北東,1.8,72.3,0,0,0,0,0,0,1021,1035.8
323,2023-02-27T05:22:00,2.7,北北東,4.5,北北東,1.8,72.6,0,0,0,0,0,0,1021,1035.8
324,2023-02-27T05:23:00,2.5,北北東,4.3,北北東,1.8,72.5,0,0,0,0,0,0,1021,1035.8
325,2023-02-27T05:24:00,2.4,北北東,4.3,北北東,1.7,72.6,0,0,0,0,0,0,1021,1035.8
326,2023-02-27T05:25:00,2.2,北北東,4.3,北北東,1.6,72.5,0,0,0,0,0,0,1021,1035.8
327,2023-02-27T05:26:00,2,北,4.3,北北東,1.7,72.8,0,0,0,0,0,0,1021.1,1035.9
328,2023-02-27T05:27:00,1.9,北,4.3,北北東,1.7,73,0,0,0,0,0,0,1021,1035.8
329,2023-02-27T05:28:00,1.8,北,4.3,北北東,1.7,73,0,0,0,0,0,0,1021.1,1035.9
330,2023-02-27T05:29:00,1.6,北,3.8,北北東,1.8,72.9,0,0,0,0,0,0,1021.1,1035.9
331,2023-02-27T05:30:00,1.5,北,3.8,北北東,1.8,73.1,0,0,0,0,0,0,1021,1035.8